Weather Roundup
Issued by NWS

Home | Current Version | Previous Version | Text Only | Print | Product List | Glossary On
Versions: 1 2 3 4 5 6 7 8 9 10 11 12 13 14 15 16 17 18 19 20 21 22 23 24 25 26 27 28 29 30 31 32 33 34 35 36 37 38 39 40 41 42 43 44 45 46 47 48 49 50
638
NZUS93 KARX 072310
HRRWXR

CURRENT HOURLY OBSERVATIONS ACROSS
MUCH OF THE UPPER MISSISSIPPI VALLEY
NATIONAL WEATHER SERVICE LA CROSSE WI
500 PM CST WED DEC 07 2016


...SOUTHEAST MINNESOTA...


CITY           SKY/WX    TMP DP  RH WIND       PRES   REMARKS
ROCHESTER      FLURRIES  19  12  74 W17       30.09R WCI   4
ROCHESTER/MAYO CLOUDY    19  13  76 W21G26    30.09R WCI   3
WINONA         FLURRIES  21  14  73 NW12G18   30.12R WCI   9
AUSTIN         FLURRIES  19  12  73 W15G30    30.12R WCI   5
ALBERT LEA     CLOUDY    23  14  68 W18G26    30.13R WCI   9
DODGE CENTER   FLURRIES  18  12  79 W20G28    30.09R WCI   1
PRESTON        CLOUDY    18  12  76 W17G24    30.10R WCI   3
OWATONNA       FLURRIES  19  10  68 W20G28    30.11R WCI   4
FARIBAULT      FLURRIES  19  12  73 W21G26    30.12R WCI   3
$$

...ELSEWHERE IN MINNESOTA...


CITY           SKY/WX    TMP DP  RH WIND       PRES   REMARKS
MINNEAPOLIS    FLURRIES  19   9  65 W21G26    30.09R WCI   3
INTNL FALLS    LGT SNOW  22  19  89 NW6       29.83R FOG     WCI  14
DULUTH         LGT SNOW  18  12  77 W22G33    29.85R BLWGSNOWWCI   1
RED WING       CLOUDY    21  10  63 W13G20    30.08R WCI   9
REDWOOD FALLS  CLOUDY    17   5  59 NW25G36   30.18R WCI  -1
MANKATO        FLURRIES  18  10  71 NW22G28   30.15R WCI   1
WORTHINGTON    FLURRIES  15   8  73 W25       30.19R WCI  -4
FAIRMONT       CLEAR     19   9  65 NW23G29   30.18R WCI   2
$$

...SOUTHWEST WISCONSIN...


CITY           SKY/WX    TMP DP  RH WIND       PRES   REMARKS
LA CROSSE      CLOUDY    22  12  65 W14       30.12R WCI   9
PRAIRIE DU CHI FLURRIES  22  13  68 W10       30.16S WCI  12
BOSCOBEL       CLOUDY    22  13  68 W9        30.14R WCI  12
LONE ROCK      CLOUDY    21  13  71 W15G21    30.12R WCI   8
PLATTEVILLE    CLOUDY    20  15  79 W20G26    30.14R WCI   5
FORT MC COY    FLURRIES  21  14  74 W13G22    30.08R WCI   8
CAMP DOUGLAS   FLURRIES  21  12  68 W13       30.05R WCI   9
MAUSTON-NEW LI CLOUDY    21  13  71 W8        30.05R WCI  12
VIROQUA        CLOUDY    18  13  80 W15G21    30.07R WCI   4
WIS DELLS      CLOUDY    19  12  72 W16G22    30.06R WCI   5
$$

...ELSEWHERE IN WISCONSIN...


CITY           SKY/WX    TMP DP  RH WIND       PRES   REMARKS
MILWAUKEE      MOCLDY    25  14  63 W15       30.05R WCI  13
MADISON        CLOUDY    20  12  71 W8G18     30.07R WCI  10
GREEN BAY      CLOUDY    26  16  65 W14G22    29.96R WCI  14
EAU CLAIRE     CLOUDY    19  11  70 W13G22    30.03R WCI   6
BLACK RVR FLS  FLURRIES  21  11  67 W12G18    30.06R WCI   9
MEDFORD        FLURRIES  18  11  75 W12G20    29.92R WCI   5
WAUSAU         FLURRIES  19  12  74 W18G30    29.93R WCI   4
WIS RAPIDS     CLOUDY    20  13  74 W14       30.01R WCI   7
MARSHFIELD     CLOUDY    19  11  70 W20G31    29.96R WCI   3
RICE LAKE      CLOUDY    19  11  72 W14       30.00R WCI   5
$$

...NORTHEAST IOWA...


CITY           SKY/WX    TMP DP  RH WIND       PRES   REMARKS
WATERLOO       CLOUDY    22  12  65 W15       30.19R WCI   9
DUBUQUE        CLOUDY    20  13  74 W14       30.15R WCI   7
DECORAH        CLOUDY    19  14  79 W10       30.11R WCI   8
MASON CITY     CLOUDY    21  11  65 W22G31    30.17R WCI   5
CHARLES CITY   CLOUDY    23  14  68 W16G29    30.15S WCI  10
OELWEIN        CLOUDY    21  14  73 W18G30    30.16R WCI   6
$$

...ELSEWHERE IN IOWA...


CITY           SKY/WX    TMP DP  RH WIND       PRES   REMARKS
DES MOINES     MOCLDY    24   9  52 NW16G24   30.27R WCI  11
IOWA CITY      PTCLDY    24  14  65 W12       30.25R WCI  13
FORT DODGE     CLEAR     21   9  58 W14G21    30.24R WCI   8
MARSHALLTOWN   PTCLDY    21  13  71 W14G23    30.22R WCI   8
CEDAR RAPIDS   CLOUDY    22  17  81 W16       30.20R WCI   8
$$

...NORTHERN ILLINOIS...


CITY           SKY/WX    TMP DP  RH WIND       PRES   REMARKS
CHICAGO-OHARE  CLOUDY    24  17  74 W18G24    30.11R WCI  10
CHICAGO-MIDWAY CLOUDY    27  17  66 W18G28    30.13R WCI  14
MOLINE         PTCLDY    26  13  57 W15G25    30.20R WCI  14
ROCKFORD       CLOUDY    24  16  71 W9        30.16R WCI  14
PEORIA         PTCLDY    29  17  61 W8        30.22R WCI  21
$$

NOTE: "FAIR" INDICATES FEW OR NO CLOUDS BELOW 12,000 FEET WITH NO
SIGNIFICANT WEATHER AND/OR OBSTRUCTIONS TO VISIBILITY. WIND
SPEEDS ARE IN MILES-PER-HOUR.




USA.gov is the U.S. government's official web portal to all federal, state and local government web resources and services.